This is the latest recevied weather packets stored in our database for station/object W1LBM. If no packets are shown the sender has not sent any weather packets the latest 10 day(s).
| Time | Temp. | Humidity | Pressure | Rain* | Wind** | Luminosity | Snow |
|---|---|---|---|---|---|---|---|
| 1777761731 | 9.44° C | 89% | 1013.3 hPa | 0 mm | - | 30 W/m² | - |
| 1777761428 | 9.44° C | 90% | 1013.3 hPa | 0 mm | - | 26 W/m² | - |
| 1777761126 | 9.44° C | 90% | 1013.2 hPa | 0 mm | - | 25 W/m² | - |
| 1777760824 | 9.44° C | 89% | 1013.2 hPa | 0 mm | - | 26 W/m² | - |
| 1777760520 | 9.44° C | 89% | 1013 hPa | 0 mm | - | 34 W/m² | - |
| 1777760216 | 9.44° C | 87% | 1013.1 hPa | 0 mm | - | 40 W/m² | - |
| 1777759913 | 10° C | 85% | 1013.3 hPa | 0 mm | - | 12 W/m² | - |
| 1777759609 | 10° C | 84% | 1013.4 hPa | 0 mm | - | 10 W/m² | - |
| 1777759305 | 10° C | 83% | 1013.4 hPa | 0 mm | - | 9 W/m² | - |
| 1777759003 | 10.56° C | 84% | 1013.3 hPa | 0 mm | - | 10 W/m² | - |
| 1777758699 | 10.56° C | 84% | 1013.2 hPa | 0 mm | - | 11 W/m² | - |
| 1777758397 | 10.56° C | 87% | 1013.2 hPa | 0 mm | - | 11 W/m² | - |
| 1777758094 | 10.56° C | 87% | 1013.4 hPa | 0 mm | - | 14 W/m² | - |
| 1777757791 | 10.56° C | 86% | 1013.2 hPa | 0 mm | - | 15 W/m² | - |
| 1777757488 | 10.56° C | 86% | 1013.1 hPa | 0 mm | - | 19 W/m² | - |
| 1777757187 | 10.56° C | 86% | 1013.2 hPa | 0 mm | - | 25 W/m² | - |
| 1777756885 | 11.11° C | 86% | 1013.2 hPa | 0 mm | - | 57 W/m² | - |
| 1777756580 | 11.11° C | 86% | 1013.2 hPa | 0 mm | - | 76 W/m² | - |
| 1777756278 | 11.11° C | 85% | 1013.1 hPa | 0 mm | - | 73 W/m² | - |
| 1777755975 | 11.11° C | 85% | 1013.1 hPa | 0 mm | - | 98 W/m² | - |
| 1777755672 | 11.11° C | 84% | 1013.3 hPa | 0 mm | - | 124 W/m² | - |
| 1777755368 | 11.11° C | 85% | 1013.1 hPa | 0 mm | - | 152 W/m² | - |
| 1777755066 | 11.11° C | 84% | 1013.2 hPa | 0 mm | - | 114 W/m² | - |
| 1777754762 | 11.67° C | 83% | 1013.2 hPa | 0 mm | - | 109 W/m² | - |
| 1777754460 | 11.67° C | 84% | 1013.1 hPa | 0 mm | - | 154 W/m² | - |
* Rain latest hour (hover to see other rain measurements)
** Current wind speed in m/s (hover to see current wind gust speed)